| time (UTC) | temp C | wind direction | speed KPH | gust KPH | rain 1hr cm | rain 24hr cm | rain mn cm | humidity % | barometer mb |
| 20260504141039 | 12 | 247 | 0.0 | 4.8 | 0.00 | 0.00 | 0.00 | 82 | 1034.1 |
| 20260504140542 | 12 | 0 | 0.0 | 4.8 | 0.00 | 0.00 | 0.00 | 82 | 1034.1 |
| 20260504130538 | 11 | 0 | 0.0 | 3.2 | 0.00 | 0.00 | 0.00 | 84 | 1034.2 |
| 20260504130204 | 11 | 240 | 0.0 | 4.8 | 0.00 | 0.00 | 0.00 | 84 | 1034.2 |
| 20260504110538 | 12 | 0 | 0.0 | 1.6 | 0.00 | 0.00 | 0.00 | 86 | 1034.2 |
| 20260504100538 | 12 | 240 | 0.0 | 1.6 | 0.00 | 0.00 | 0.00 | 85 | 1034.3 |
| 20260504081551 | 12 | 0 | 0.0 | 1.6 | 0.00 | 0.00 | 0.00 | 83 | 1033.6 |
| 20260504081038 | 12 | 0 | 0.0 | 0.0 | 0.00 | 0.00 | 0.00 | 83 | 1033.6 |
| 20260504080542 | 12 | 0 | 0.0 | 1.6 | 0.00 | 0.00 | 0.00 | 83 | 1033.6 |
| 20260504050535 | 13 | 244 | 1.6 | 4.8 | 0.00 | 0.00 | 0.00 | 80 | 1032.8 |
| 20260504045534 | 13 | 240 | 1.6 | 6.4 | 0.00 | 0.00 | 0.00 | 79 | 1032.8 |
| 20260504045034 | 13 | 229 | 1.6 | 9.7 | 0.00 | 0.00 | 0.00 | 79 | 1032.8 |
| 20260504044547 | 13 | 241 | 3.2 | 9.7 | 0.00 | 0.00 | 0.00 | 79 | 1032.8 |
| 20260504044039 | 13 | 240 | 3.2 | 8.0 | 0.00 | 0.00 | 0.00 | 79 | 1032.9 |
| 20260504043539 | 13 | 261 | 3.2 | 8.0 | 0.00 | 0.00 | 0.00 | 79 | 1032.8 |
| 20260504043055 | 13 | 227 | 4.8 | 8.0 | 0.00 | 0.00 | 0.00 | 78 | 1032.8 |
| 20260504042540 | 13 | 224 | 4.8 | 8.0 | 0.00 | 0.00 | 0.00 | 79 | 1032.8 |
| 20260504042039 | 13 | 233 | 1.6 | 6.4 | 0.00 | 0.00 | 0.00 | 79 | 1032.8 |
| 20260504041546 | 13 | 233 | 3.2 | 8.0 | 0.00 | 0.00 | 0.00 | 78 | 1032.8 |
| 20260504041038 | 13 | 234 | 3.2 | 8.0 | 0.00 | 0.00 | 0.00 | 77 | 1032.6 |
| 20260504040535 | 13 | 239 | 4.8 | 9.7 | 0.00 | 0.00 | 0.00 | 77 | 1032.7 |
| 20260504040047 | 13 | 232 | 4.8 | 9.7 | 0.00 | 0.00 | 0.00 | 78 | 1032.7 |
| 20260504035538 | 13 | 238 | 4.8 | 9.7 | 0.00 | 0.00 | 0.00 | 78 | 1032.7 |
| 20260504035037 | 13 | 241 | 4.8 | 8.0 | 0.00 | 0.00 | 0.00 | 78 | 1032.7 |
| 20260504034555 | 14 | 242 | 4.8 | 6.4 | 0.00 | 0.00 | 0.00 | 77 | 1032.6 |
| 20260504034040 | 13 | 232 | 4.8 | 6.4 | 0.00 | 0.00 | 0.00 | 77 | 1032.8 |
| 20260504033538 | 14 | 238 | 4.8 | 12.9 | 0.00 | 0.00 | 0.00 | 77 | 1032.8 |
| 20260504033047 | 14 | 234 | 3.2 | 12.9 | 0.00 | 0.00 | 0.00 | 76 | 1032.8 |
| 20260504032539 | 14 | 227 | 4.8 | 12.9 | 0.00 | 0.00 | 0.00 | 76 | 1032.7 |
| 20260504032039 | 14 | 240 | 3.2 | 11.3 | 0.00 | 0.00 | 0.00 | 77 | 1032.8 |
| 20260504031548 | 14 | 249 | 4.8 | 11.3 | 0.00 | 0.00 | 0.00 | 76 | 1032.8 |
| 20260504031040 | 14 | 257 | 4.8 | 6.4 | 0.00 | 0.00 | 0.00 | 77 | 1032.8 |
| 20260504030538 | 14 | 232 | 3.2 | 11.3 | 0.00 | 0.00 | 0.00 | 76 | 1032.8 |
| 20260504030045 | 14 | 234 | 3.2 | 11.3 | 0.00 | 0.00 | 0.00 | 76 | 1032.8 |
| 20260504025538 | 14 | 246 | 4.8 | 9.7 | 0.00 | 0.00 | 0.00 | 76 | 1032.8 |
| 20260504025038 | 14 | 270 | 3.2 | 8.0 | 0.00 | 0.00 | 0.00 | 77 | 1032.9 |
| 20260504024547 | 14 | 238 | 3.2 | 6.4 | 0.00 | 0.00 | 0.00 | 76 | 1032.9 |
| 20260504024035 | 14 | 247 | 3.2 | 14.5 | 0.00 | 0.00 | 0.00 | 75 | 1032.9 |
| 20260504023535 | 14 | 235 | 4.8 | 14.5 | 0.00 | 0.00 | 0.00 | 75 | 1033.0 |
| 20260504023042 | 14 | 223 | 4.8 | 12.9 | 0.00 | 0.00 | 0.00 | 76 | 1032.9 |
| 20260504022535 | 14 | 254 | 6.4 | 11.3 | 0.00 | 0.00 | 0.00 | 75 | 1032.9 |
| 20260504022041 | 14 | 239 | 3.2 | 9.7 | 0.00 | 0.00 | 0.00 | 76 | 1033.0 |
| 20260504021553 | 14 | 277 | 3.2 | 11.3 | 0.00 | 0.00 | 0.00 | 75 | 1033.1 |
| 20260504021034 | 14 | 250 | 3.2 | 11.3 | 0.00 | 0.00 | 0.00 | 74 | 1033.0 |
| 20260504020537 | 14 | 241 | 3.2 | 11.3 | 0.00 | 0.00 | 0.00 | 74 | 1033.0 |
| 20260504020049 | 14 | 36 | 6.4 | 12.9 | 0.00 | 0.00 | 0.00 | 74 | 1033.1 |
| 20260504015539 | 14 | 240 | 6.4 | 14.5 | 0.00 | 0.00 | 0.00 | 74 | 1033.1 |
| 20260504015039 | 14 | 238 | 4.8 | 14.5 | 0.00 | 0.00 | 0.00 | 75 | 1033.1 |
| 20260504014546 | 14 | 294 | 6.4 | 14.5 | 0.00 | 0.00 | 0.00 | 74 | 1033.1 |
| 20260504014039 | 14 | 274 | 3.2 | 14.5 | 0.00 | 0.00 | 0.00 | 74 | 1033.0 |
| 20260504013538 | 14 | 296 | 3.2 | 16.1 | 0.00 | 0.00 | 0.00 | 74 | 1033.0 |
| 20260504013101 | 14 | 223 | 6.4 | 16.1 | 0.00 | 0.00 | 0.00 | 75 | 1033.1 |
| 20260504012538 | 14 | 232 | 3.2 | 12.9 | 0.00 | 0.00 | 0.00 | 75 | 1033.1 |
| 20260504012039 | 14 | 225 | 6.4 | 12.9 | 0.00 | 0.00 | 0.00 | 74 | 1033.1 |
| 20260504011542 | 14 | 242 | 3.2 | 9.7 | 0.00 | 0.00 | 0.00 | 75 | 1033.1 |
| 20260504011037 | 14 | 275 | 3.2 | 11.3 | 0.00 | 0.00 | 0.00 | 74 | 1033.2 |
| 20260504010538 | 14 | 246 | 4.8 | 11.3 | 0.00 | 0.00 | 0.00 | 73 | 1033.4 |
| 20260504010050 | 14 | 279 | 3.2 | 6.4 | 0.00 | 0.00 | 0.00 | 74 | 1033.5 |
| 20260504005541 | 15 | 268 | 3.2 | 14.5 | 0.00 | 0.00 | 0.00 | 74 | 1033.5 |
| 20260504005039 | 14 | 71 | 3.2 | 14.5 | 0.00 | 0.00 | 0.00 | 74 | 1033.5 |
| 20260504004548 | 14 | 244 | 8.0 | 14.5 | 0.00 | 0.00 | 0.00 | 72 | 1033.6 |
| 20260504004038 | 15 | 271 | 6.4 | 11.3 | 0.00 | 0.00 | 0.00 | 73 | 1033.6 |
| 20260504003538 | 15 | 67 | 1.6 | 11.3 | 0.00 | 0.00 | 0.00 | 75 | 1033.7 |
| 20260504003047 | 14 | 273 | 4.8 | 11.3 | 0.00 | 0.00 | 0.00 | 73 | 1033.6 |
| 20260504002538 | 15 | 51 | 3.2 | 11.3 | 0.00 | 0.00 | 0.00 | 73 | 1033.7 |
| 20260504002038 | 15 | 0 | 1.6 | 4.8 | 0.00 | 0.00 | 0.00 | 74 | 1033.6 |
| 20260504001548 | 15 | 231 | 1.6 | 9.7 | 0.00 | 0.00 | 0.00 | 74 | 1033.8 |
| 20260504001041 | 15 | 242 | 1.6 | 9.7 | 0.00 | 0.00 | 0.00 | 75 | 1033.8 |
| 20260504000538 | 15 | 266 | 0.0 | 9.7 | 0.00 | 0.00 | 0.00 | 75 | 1033.9 |
| 20260504000045 | 14 | 247 | 4.8 | 9.7 | 0.00 | 0.00 | 0.00 | 75 | 1034.0 |
| 20260503235538 | 14 | 249 | 3.2 | 11.3 | 0.00 | 0.00 | 0.00 | 74 | 1034.0 |
| 20260503235039 | 14 | 248 | 4.8 | 11.3 | 0.00 | 0.00 | 0.00 | 74 | 1034.0 |
| 20260503234548 | 15 | 72 | 3.2 | 9.7 | 0.00 | 0.00 | 0.00 | 74 | 1034.0 |
| 20260503234039 | 15 | 321 | 3.2 | 8.0 | 0.00 | 0.00 | 0.00 | 73 | 1034.0 |
| 20260503233539 | 15 | 246 | 1.6 | 8.0 | 0.00 | 0.00 | 0.00 | 74 | 1034.0 |
| 20260503233048 | 15 | 254 | 1.6 | 11.3 | 0.00 | 0.00 | 0.00 | 74 | 1034.1 |
| 20260503232541 | 15 | 57 | 3.2 | 11.3 | 0.00 | 0.00 | 0.00 | 74 | 1034.1 |
| 20260503232038 | 15 | 275 | 3.2 | 11.3 | 0.00 | 0.00 | 0.00 | 73 | 1034.1 |
| 20260503231547 | 15 | 64 | 0.0 | 8.0 | 0.00 | 0.00 | 0.00 | 74 | 1034.2 |
| 20260503231039 | 15 | 40 | 1.6 | 6.4 | 0.00 | 0.00 | 0.00 | 74 | 1034.1 |
| 20260503230542 | 15 | 225 | 0.0 | 9.7 | 0.00 | 0.00 | 0.00 | 74 | 1034.1 |
| 20260503230051 | 15 | 31 | 0.0 | 9.7 | 0.00 | 0.00 | 0.00 | 74 | 1034.2 |
| 20260503225538 | 15 | 260 | 1.6 | 8.0 | 0.00 | 0.00 | 0.00 | 73 | 1034.2 |
| 20260503225038 | 14 | 62 | 3.2 | 11.3 | 0.00 | 0.00 | 0.00 | 73 | 1034.2 |
| 20260503224543 | 14 | 223 | 3.2 | 11.3 | 0.00 | 0.00 | 0.00 | 73 | 1034.1 |
| 20260503224038 | 14 | 294 | 1.6 | 8.0 | 0.00 | 0.00 | 0.00 | 74 | 1034.1 |
| 20260503223538 | 14 | 79 | 3.2 | 9.7 | 0.00 | 0.00 | 0.00 | 74 | 1034.2 |
| 20260503223042 | 14 | 234 | 3.2 | 9.7 | 0.00 | 0.00 | 0.00 | 74 | 1034.1 |
| 20260503222539 | 14 | 343 | 1.6 | 8.0 | 0.00 | 0.00 | 0.00 | 75 | 1034.2 |
| 20260503222037 | 14 | 73 | 1.6 | 4.8 | 0.00 | 0.00 | 0.00 | 76 | 1034.2 |
| 20260503221558 | 14 | 255 | 1.6 | 4.8 | 0.00 | 0.00 | 0.00 | 75 | 1034.2 |
| 20260503221039 | 14 | 175 | 1.6 | 4.8 | 0.00 | 0.00 | 0.00 | 77 | 1034.2 |
| 20260503220539 | 14 | 329 | 1.6 | 11.3 | 0.00 | 0.00 | 0.00 | 76 | 1034.3 |
| 20260503220050 | 13 | 0 | 1.6 | 11.3 | 0.00 | 0.00 | 0.00 | 77 | 1034.2 |
| 20260503215538 | 13 | 37 | 1.6 | 6.4 | 0.00 | 0.00 | 0.00 | 78 | 1034.3 |
| 20260503215038 | 13 | 43 | 1.6 | 4.8 | 0.00 | 0.00 | 0.00 | 79 | 1034.4 |
| 20260503214545 | 13 | 232 | 1.6 | 4.8 | 0.00 | 0.00 | 0.00 | 81 | 1034.2 |
| 20260503214038 | 13 | 232 | 0.0 | 3.2 | 0.00 | 0.00 | 0.00 | 83 | 1034.3 |
| 20260503213539 | 13 | 0 | 0.0 | 4.8 | 0.00 | 0.00 | 0.00 | 83 | 1034.2 |
| 20260503213050 | 13 | 232 | 1.6 | 4.8 | 0.00 | 0.00 | 0.00 | 83 | 1034.3 |
| 20260503212538 | 13 | 238 | 1.6 | 4.8 | 0.00 | 0.00 | 0.00 | 84 | 1034.3 |
| 20260503212037 | 13 | 238 | 0.0 | 6.4 | 0.00 | 0.00 | 0.00 | 85 | 1034.4 |
| 20260503211550 | 12 | 238 | 1.6 | 6.4 | 0.00 | 0.00 | 0.00 | 86 | 1034.3 |
| 20260503211038 | 12 | 238 | 0.0 | 3.2 | 0.00 | 0.00 | 0.00 | 87 | 1034.3 |
| 20260503210539 | 12 | 238 | 1.6 | 3.2 | 0.00 | 0.00 | 0.00 | 87 | 1034.4 |
| 20260503210049 | 12 | 0 | 0.0 | 3.2 | 0.00 | 0.00 | 0.00 | 88 | 1034.3 |
| 20260503205539 | 12 | 0 | 0.0 | 6.4 | 0.00 | 0.00 | 0.00 | 89 | 1034.3 |
| 20260503205039 | 12 | 0 | 1.6 | 6.4 | 0.00 | 0.00 | 0.00 | 89 | 1034.4 |
| 20260503204603 | 12 | 244 | 1.6 | 3.2 | 0.00 | 0.00 | 0.00 | 89 | 1034.4 |
| 20260503204038 | 12 | 0 | 0.0 | 3.2 | 0.00 | 0.00 | 0.00 | 90 | 1034.3 |
| 20260503203536 | 11 | 80 | 0.0 | 3.2 | 0.00 | 0.00 | 0.00 | 90 | 1034.2 |
| 20260503203052 | 11 | 80 | 0.0 | 3.2 | 0.00 | 0.00 | 0.00 | 90 | 1034.2 |
| 20260503202537 | 11 | 0 | 0.0 | 3.2 | 0.00 | 0.00 | 0.00 | 91 | 1034.2 |
| 20260503202036 | 11 | 79 | 0.0 | 3.2 | 0.00 | 0.00 | 0.00 | 91 | 1034.1 |
| 20260503201545 | 11 | 79 | 0.0 | 1.6 | 0.00 | 0.00 | 0.00 | 91 | 1034.1 |
| 20260503201038 | 11 | 0 | 0.0 | 1.6 | 0.00 | 0.00 | 0.00 | 91 | 1034.1 |
| 20260503200536 | 11 | 0 | 0.0 | 1.6 | 0.00 | 0.00 | 0.00 | 91 | 1034.0 |
| 20260503200044 | 11 | 0 | 0.0 | 1.6 | 0.00 | 0.00 | 0.00 | 91 | 1034.0 |
| 20260503195536 | 11 | 0 | 0.0 | 3.2 | 0.00 | 0.00 | 0.00 | 92 | 1033.8 |
| 20260503195039 | 11 | 0 | 0.0 | 3.2 | 0.00 | 0.00 | 0.00 | 92 | 1034.0 |
| 20260503194555 | 11 | 76 | 0.0 | 4.8 | 0.00 | 0.00 | 0.00 | 92 | 1033.9 |
| 20260503194037 | 11 | 0 | 0.0 | 4.8 | 0.00 | 0.00 | 0.00 | 92 | 1033.9 |
| 20260503193536 | 11 | 75 | 0.0 | 3.2 | 0.00 | 0.00 | 0.00 | 92 | 1033.7 |
| 20260503193054 | 11 | 0 | 0.0 | 3.2 | 0.00 | 0.00 | 0.00 | 92 | 1033.7 |
| 20260503192536 | 11 | 85 | 0.0 | 1.6 | 0.00 | 0.00 | 0.00 | 92 | 1033.7 |
| 20260503192036 | 11 | 0 | 0.0 | 1.6 | 0.00 | 0.00 | 0.00 | 92 | 1033.6 |
| 20260503191606 | 11 | 0 | 0.0 | 1.6 | 0.00 | 0.00 | 0.00 | 92 | 1033.7 |
| 20260503191039 | 11 | 0 | 0.0 | 1.6 | 0.00 | 0.00 | 0.00 | 92 | 1033.6 |
| 20260503190537 | 11 | 85 | 0.0 | 6.4 | 0.00 | 0.00 | 0.00 | 92 | 1033.6 |
| 20260503190044 | 11 | 83 | 0.0 | 8.0 | 0.00 | 0.00 | 0.00 | 92 | 1033.6 |
| 20260503185536 | 11 | 74 | 4.8 | 8.0 | 0.00 | 0.00 | 0.00 | 93 | 1033.5 |
| 20260503185036 | 11 | 0 | 0.0 | 4.8 | 0.00 | 0.00 | 0.00 | 93 | 1033.6 |
| 20260503184552 | 10 | 37 | 0.0 | 3.2 | 0.00 | 0.00 | 0.00 | 93 | 1033.6 |
| 20260503184038 | 10 | 0 | 0.0 | 1.6 | 0.00 | 0.00 | 0.00 | 93 | 1033.5 |
| 20260503183535 | 10 | 0 | 0.0 | 1.6 | 0.00 | 0.00 | 0.00 | 93 | 1033.7 |
| 20260503183049 | 10 | 0 | 0.0 | 1.6 | 0.00 | 0.00 | 0.00 | 93 | 1033.6 |
| 20260503182536 | 10 | 0 | 0.0 | 1.6 | 0.00 | 0.00 | 0.00 | 93 | 1033.5 |
| 20260503182035 | 10 | 0 | 0.0 | 1.6 | 0.00 | 0.00 | 0.00 | 93 | 1033.4 |
| 20260503181552 | 10 | 0 | 0.0 | 1.6 | 0.00 | 0.00 | 0.00 | 93 | 1033.6 |
| 20260503181035 | 10 | 73 | 0.0 | 6.4 | 0.00 | 0.00 | 0.00 | 93 | 1033.6 |
| 20260503180538 | 11 | 73 | 0.0 | 6.4 | 0.00 | 0.00 | 0.00 | 94 | 1033.5 |
| 20260503180056 | 10 | 67 | 0.0 | 6.4 | 0.00 | 0.00 | 0.00 | 94 | 1033.4 |
| 20260503175538 | 10 | 79 | 0.0 | 3.2 | 0.00 | 0.00 | 0.00 | 94 | 1033.4 |
| 20260503175038 | 10 | 79 | 0.0 | 1.6 | 0.00 | 0.00 | 0.00 | 94 | 1033.4 |
| 20260503174554 | 10 | 145 | 0.0 | 1.6 | 0.00 | 0.00 | 0.00 | 94 | 1033.4 |
| 20260503174036 | 10 | 0 | 0.0 | 1.6 | 0.00 | 0.00 | 0.00 | 94 | 1033.4 |
| 20260503173536 | 10 | 0 | 0.0 | 1.6 | 0.00 | 0.00 | 0.00 | 94 | 1033.6 |
| 20260503173049 | 10 | 81 | 0.0 | 1.6 | 0.00 | 0.00 | 0.00 | 94 | 1033.5 |
| 20260503172535 | 10 | 0 | 0.0 | 1.6 | 0.00 | 0.00 | 0.00 | 94 | 1033.6 |
| 20260503172036 | 10 | 0 | 0.0 | 0.0 | 0.00 | 0.00 | 0.00 | 94 | 1033.5 |
| 20260503171556 | 10 | 0 | 0.0 | 0.0 | 0.00 | 0.00 | 0.00 | 94 | 1033.4 |
| 20260503171036 | 10 | 0 | 0.0 | 1.6 | 0.00 | 0.00 | 0.00 | 94 | 1033.5 |
| 20260503170536 | 10 | 0 | 0.0 | 3.2 | 0.00 | 0.00 | 0.00 | 94 | 1033.5 |
| 20260503160104 | 9 | 111 | 0.0 | 1.6 | 0.00 | 0.00 | 0.00 | 95 | 1033.6 |
| 20260503150536 | 9 | 0 | 0.0 | 0.0 | 0.00 | 0.00 | 0.00 | 95 | 1033.8 |